Location: Unspecified
(0.0000°N, 0.0000°E)
Time: 13:10:25
(UTC+01:00)

ISS - Visible Passes

Search period start: 09 December 2025 00:00
Search period end: 19 December 2025 00:00
Orbit: 416 x 421 km, 51.6° (Epoch: 08 December)

Date Brightness Start Highest point End Pass type
(mag) Time Alt. Az. Time Alt. Az. Time Alt. Az.
09 Dec -0.1 05:26:20 10° SSE 05:27:31 11° SE 05:28:41 10° ESE visible
10 Dec -3.7 06:12:59 10° SW 06:16:17 53° NW 06:19:34 10° NNE visible
11 Dec -3.2 05:25:09 10° SSW 05:28:27 57° SE 05:31:45 10° NE visible
12 Dec -1.7 06:17:04 11° NW 06:17:10 11° NW 06:18:03 10° NW visible
